Ellsworth AFB, SD

6:58 AM MDT on May 26, 2018 (GMT -0600)
Ellsworth Air Force Base

Weather History for KRCA - January, 2013

Change the Weather History Date:

Wednesday, January 16, 2013

  Actual Average Record
Temperature  
Mean Temperature 40 °F -  
Max Temperature 47 °F 35 °F 50 °F (2004)
Min Temperature 30 °F 14 °F -11 °F (1997)
Degree Days  
Heating Degree Days 25    
Moisture  
Dew Point 22 °F    
Average Humidity 47    
Maximum Humidity 64    
Minimum Humidity 38    
Precipitation  
Precipitation 0.00 in - - ()
Sea Level Pressure  
Sea Level Pressure 30.10 in    
Wind  
Wind Speed 19 mph (NW)    
Max Wind Speed 33 mph    
Max Gust Speed 43 mph    
Visibility 10 miles    
Events      
Averages and records for this station are not official NWS values.
T = Trace of Precipitation, MM = Missing Value Source: NWS Daily Summary

Daily Weather History Graph

Daily Weather History Graph

Search for Another Location

Airport or City:

Astronomy

Jan. 16, 2013 Rise Set
Actual Time 7:23 AM MST 4:41 PM MST
Civil Twilight 6:51 AM MST 5:13 PM MST
Nautical Twilight 6:15 AM MST 5:49 PM MST
Astronomical Twilight 5:41 AM MST 6:23 PM MST
Moon 9:47 AM MST (1/16) 10:50 PM MST (1/16)
Length of Visible Light 10h 21m
Length of Day
9h 17m
Waxing Crescent, 29% of the Moon is Illuminated
Jan 16
Waxing Crescent
Jan 18
First Quarter
Jan 26
Full
Feb 3
Last Quarter
Feb 10
New

Hourly Weather History & Observations

Time (MST) Temp. Windchill Dew Point Humidity Pressure Visibility Wind Dir Wind Speed Gust Speed Precip Events Conditions
12:55 AM 40.8 °F 30.2 °F 28.4 °F 61% 29.96 in 10.0 mi NW 26.5 mph 33.4 mph N/A   Clear
1:55 AM 40.5 °F 31.5 °F 26.1 °F 57% 29.97 in 10.0 mi NW 18.4 mph - N/A   Clear
2:55 AM 41.2 °F 33.0 °F 23.9 °F 50% 29.99 in 10.0 mi WNW 16.1 mph - N/A   Mostly Cloudy
3:55 AM 40.8 °F 32.9 °F 22.8 °F 49% 29.99 in 10.0 mi NW 15.0 mph - N/A   Mostly Cloudy
4:55 AM 42.1 °F 39.2 °F 21.9 °F 45% 29.97 in 10.0 mi West 4.6 mph - N/A   Overcast
5:55 AM 42.8 °F 35.4 °F 20.7 °F 41% 29.98 in 10.0 mi NW 15.0 mph 20.7 mph N/A   Overcast
6:55 AM 43.2 °F 35.0 °F 20.7 °F 41% 29.98 in 10.0 mi WNW 18.4 mph 26.5 mph N/A   Scattered Clouds
7:55 AM 44.1 °F 35.4 °F 20.1 °F 39% 29.98 in 10.0 mi WNW 21.9 mph 31.1 mph N/A   Mostly Cloudy
8:55 AM 44.4 °F 34.9 °F 19.9 °F 38% 30.01 in 10.0 mi NW 27.6 mph 35.7 mph N/A   Overcast
9:55 AM 44.4 °F 35.5 °F 20.5 °F 39% 30.05 in 10.0 mi NW 24.2 mph 36.8 mph N/A   Overcast
10:55 AM 44.6 °F 35.7 °F 21.4 °F 40% 30.07 in 10.0 mi NW 24.2 mph 34.5 mph N/A   Overcast
11:55 AM 45.9 °F 36.0 °F 21.9 °F 39% 30.07 in 10.0 mi NW 33.4 mph 42.6 mph N/A   Partly Cloudy
12:55 PM 47.5 °F - 22.6 °F 38% 30.07 in 10.0 mi NW 25.3 mph 32.2 mph N/A   Partly Cloudy
1:55 PM 46.4 °F 38.1 °F 21.7 °F 38% 30.11 in 10.0 mi NNW 24.2 mph - N/A   Overcast
2:55 PM 44.2 °F 37.3 °F 22.3 °F 42% 30.14 in 10.0 mi NW 15.0 mph 24.2 mph N/A   Mostly Cloudy
3:55 PM 43.3 °F 36.5 °F 22.1 °F 43% 30.14 in 10.0 mi NW 13.8 mph - N/A   Scattered Clouds
4:55 PM 41.7 °F 35.2 °F 21.0 °F 44% 30.18 in 10.0 mi NNW 11.5 mph - N/A   Overcast
5:55 PM 40.5 °F 33.6 °F 21.7 °F 47% 30.21 in 10.0 mi NW 11.5 mph - N/A   Mostly Cloudy
6:55 PM 37.8 °F 30.7 °F 22.1 °F 53% 30.22 in 10.0 mi WNW 10.4 mph - N/A   Mostly Cloudy
7:55 PM 33.3 °F 26.4 °F 21.6 °F 62% 30.24 in 10.0 mi WNW 8.1 mph - N/A   Clear
8:55 PM 35.1 °F 26.9 °F 21.7 °F 58% 30.26 in 10.0 mi NW 11.5 mph - N/A   Clear
9:55 PM 37.4 °F 29.3 °F 21.0 °F 52% 30.26 in 10.0 mi NW 12.7 mph - N/A   Clear
10:55 PM 33.3 °F 27.9 °F 19.8 °F 58% 30.29 in 10.0 mi West 5.8 mph - N/A   Clear
11:55 PM 30.4 °F 23.6 °F 19.4 °F 64% 30.31 in 10.0 mi West 6.9 mph - N/A   Clear